| time (UTC) | temp F | wind direction | speed MPH | gust MPH | rain 1hr in | rain 24hr in | rain mn in | humidity % | barometer mb |
| 20260507180035 | 69 | 355 | 2.0 | 9.0 | 0.00 | 0.00 | 0.00 | 52 | 1015.9 |
| 20260507175036 | 69 | 350 | 3.0 | 11.0 | 0.00 | 0.00 | 0.00 | 53 | 1016.2 |
| 20260507174036 | 68 | 355 | 2.0 | 9.0 | 0.00 | 0.00 | 0.00 | 56 | 1016.3 |
| 20260507173035 | 67 | 74 | 3.0 | 8.0 | 0.00 | 0.00 | 0.00 | 53 | 1016.4 |
| 20260507172039 | 67 | 5 | 2.0 | 8.0 | 0.00 | 0.00 | 0.00 | 56 | 1016.8 |
| 20260507171035 | 67 | 59 | 3.0 | 10.0 | 0.00 | 0.00 | 0.00 | 55 | 1017.2 |
| 20260507170520 | 66 | 84 | 2.0 | 9.0 | 0.00 | 0.00 | 0.00 | 58 | 1017.4 |
| 20260507165036 | 66 | 63 | 2.0 | 8.0 | 0.00 | 0.00 | 0.00 | 57 | 1017.6 |
| 20260507164034 | 65 | 15 | 3.0 | 10.0 | 0.00 | 0.00 | 0.00 | 60 | 1017.7 |
| 20260507163036 | 65 | 57 | 1.0 | 12.0 | 0.00 | 0.00 | 0.00 | 59 | 1017.7 |
| 20260507162036 | 65 | 67 | 2.0 | 8.0 | 0.00 | 0.00 | 0.00 | 60 | 1017.7 |
| 20260507161036 | 65 | 42 | 2.0 | 7.0 | 0.00 | 0.00 | 0.00 | 61 | 1017.8 |
| 20260507160038 | 64 | 12 | 1.0 | 4.0 | 0.00 | 0.00 | 0.00 | 62 | 1017.6 |
| 20260507155035 | 64 | 17 | 1.0 | 4.0 | 0.00 | 0.00 | 0.00 | 62 | 1017.7 |
| 20260507154527 | 63 | 59 | 2.0 | 9.0 | 0.00 | 0.00 | 0.00 | 65 | 1017.8 |
| 20260507153036 | 63 | 73 | 2.0 | 8.0 | 0.00 | 0.00 | 0.00 | 64 | 1017.9 |
| 20260507152036 | 63 | 315 | 1.0 | 9.0 | 0.00 | 0.00 | 0.00 | 67 | 1017.9 |
| 20260507151036 | 62 | 24 | 2.0 | 7.0 | 0.00 | 0.00 | 0.00 | 69 | 1018.1 |
| 20260507150034 | 62 | 78 | 2.0 | 8.0 | 0.00 | 0.01 | 0.00 | 69 | 1018.2 |
| 20260507145515 | 61 | 47 | 1.0 | 8.0 | 0.00 | 0.03 | 0.00 | 72 | 1018.2 |
| 20260507144034 | 60 | 68 | 2.0 | 6.0 | 0.00 | 0.03 | 0.00 | 76 | 1018.2 |
| 20260507143507 | 60 | 325 | 1.0 | 4.0 | 0.00 | 0.03 | 0.00 | 78 | 1018.3 |
| 20260507142034 | 59 | 355 | 2.0 | 6.0 | 0.00 | 0.03 | 0.00 | 81 | 1018.4 |
| 20260507141032 | 58 | 350 | 3.0 | 8.0 | 0.00 | 0.03 | 0.00 | 83 | 1018.4 |
| 20260507140035 | 56 | 336 | 4.0 | 8.0 | 0.00 | 0.03 | 0.00 | 83 | 1018.3 |
| 20260507135033 | 55 | 329 | 4.0 | 6.0 | 0.00 | 0.03 | 0.00 | 84 | 1018.5 |
| 20260507134034 | 55 | 332 | 4.0 | 6.0 | 0.00 | 0.03 | 0.00 | 87 | 1018.6 |
| 20260507133032 | 54 | 313 | 4.0 | 8.0 | 0.00 | 0.03 | 0.00 | 87 | 1018.6 |
| 20260507133002 | 54 | 342 | 3.0 | 8.0 | 0.00 | 0.03 | 0.00 | 88 | 1018.6 |
| 20260507131030 | 53 | 315 | 3.0 | 6.0 | 0.00 | 0.03 | 0.00 | 88 | 1018.5 |
| 20260507130028 | 53 | 323 | 3.0 | 6.0 | 0.00 | 0.03 | 0.00 | 88 | 1018.6 |
| 20260507125031 | 53 | 333 | 1.0 | 3.0 | 0.00 | 0.03 | 0.00 | 88 | 1018.4 |
| 20260507124028 | 53 | 304 | 1.0 | 2.0 | 0.00 | 0.03 | 0.00 | 88 | 1018.2 |
| 20260507123028 | 52 | 340 | 2.0 | 4.0 | 0.00 | 0.03 | 0.00 | 88 | 1018.1 |
| 20260507122028 | 52 | 318 | 2.0 | 4.0 | 0.00 | 0.03 | 0.00 | 88 | 1018.1 |
| 20260507121028 | 52 | 314 | 1.0 | 2.0 | 0.00 | 0.03 | 0.00 | 88 | 1018.2 |
| 20260507120503 | 52 | 317 | 2.0 | 4.0 | 0.00 | 0.03 | 0.00 | 87 | 1018.1 |
| 20260507115024 | 52 | 343 | 3.0 | 5.0 | 0.00 | 0.03 | 0.00 | 87 | 1017.8 |
| 20260507114023 | 52 | 335 | 3.0 | 6.0 | 0.00 | 0.03 | 0.00 | 87 | 1017.7 |
| 20260507113021 | 52 | 344 | 3.0 | 9.0 | 0.00 | 0.03 | 0.00 | 87 | 1017.6 |
| 20260507112023 | 52 | 342 | 5.0 | 9.0 | 0.00 | 0.03 | 0.00 | 87 | 1017.9 |
| 20260507111023 | 52 | 355 | 5.0 | 8.0 | 0.00 | 0.03 | 0.00 | 87 | 1017.9 |
| 20260507110021 | 51 | 338 | 3.0 | 5.0 | 0.00 | 0.03 | 0.00 | 88 | 1017.9 |
| 20260507105021 | 51 | 298 | 3.0 | 5.0 | 0.00 | 0.03 | 0.00 | 88 | 1017.8 |
| 20260507104023 | 51 | 327 | 3.0 | 5.0 | 0.00 | 0.03 | 0.00 | 87 | 1017.6 |
| 20260507103025 | 51 | 323 | 2.0 | 5.0 | 0.00 | 0.03 | 0.00 | 87 | 1017.4 |
| 20260507102020 | 51 | 315 | 2.0 | 3.0 | 0.00 | 0.03 | 0.00 | 87 | 1017.2 |
| 20260507101021 | 51 | 317 | 2.0 | 4.0 | 0.00 | 0.03 | 0.00 | 87 | 1017.1 |
| 20260507100021 | 51 | 323 | 3.0 | 5.0 | 0.00 | 0.03 | 0.00 | 87 | 1016.9 |
| 20260507095018 | 51 | 332 | 2.0 | 4.0 | 0.00 | 0.03 | 0.00 | 86 | 1016.7 |
| 20260507094504 | 52 | 347 | 1.0 | 3.0 | 0.00 | 0.03 | 0.00 | 86 | 1016.8 |
| 20260507093019 | 52 | 350 | 0.0 | 3.0 | 0.00 | 0.03 | 0.00 | 85 | 1016.6 |
| 20260507092020 | 52 | 355 | 0.0 | 1.0 | 0.00 | 0.03 | 0.00 | 85 | 1016.2 |
| 20260507091019 | 52 | 355 | 0.0 | 2.0 | 0.00 | 0.03 | 0.00 | 85 | 1015.9 |
| 20260507090019 | 53 | 5 | 0.0 | 2.0 | 0.00 | 0.03 | 0.00 | 85 | 1015.7 |
| 20260507085020 | 53 | 21 | 0.0 | 2.0 | 0.00 | 0.03 | 0.00 | 84 | 1015.8 |
| 20260507084018 | 53 | 12 | 0.0 | 1.0 | 0.00 | 0.03 | 0.00 | 84 | 1015.9 |
| 20260507083014 | 53 | 0 | 0.0 | 1.0 | 0.00 | 0.03 | 0.00 | 84 | 1016.2 |
| 20260507082014 | 53 | 0 | 0.0 | 2.0 | 0.00 | 0.03 | 0.00 | 84 | 1016.2 |
| 20260507081011 | 53 | 351 | 1.0 | 4.0 | 0.00 | 0.03 | 0.00 | 83 | 1016.1 |
| 20260507080010 | 53 | 347 | 0.0 | 4.0 | 0.00 | 0.03 | 0.00 | 83 | 1016.0 |
| 20260507075011 | 53 | 346 | 1.0 | 4.0 | 0.00 | 0.03 | 0.00 | 83 | 1016.0 |
| 20260507074010 | 53 | 341 | 2.0 | 5.0 | 0.00 | 0.03 | 0.00 | 82 | 1015.9 |
| 20260507073442 | 54 | 350 | 0.0 | 4.0 | 0.00 | 0.03 | 0.00 | 81 | 1015.8 |
| 20260507072012 | 54 | 5 | 0.0 | 2.0 | 0.00 | 0.03 | 0.00 | 81 | 1015.7 |
| 20260507071010 | 55 | 5 | 1.0 | 5.0 | 0.00 | 0.03 | 0.00 | 81 | 1015.6 |
| 20260507070012 | 55 | 0 | 0.0 | 3.0 | 0.00 | 0.03 | 0.00 | 80 | 1015.5 |
| 20260507065005 | 55 | 0 | 0.0 | 3.0 | 0.00 | 0.03 | 0.00 | 80 | 1015.5 |
| 20260507064436 | 55 | 5 | 0.0 | 2.0 | 0.00 | 0.03 | 0.00 | 79 | 1015.4 |
| 20260507063003 | 55 | 40 | 0.0 | 2.0 | 0.00 | 0.03 | 0.00 | 79 | 1015.4 |
| 20260507062006 | 56 | 30 | 0.0 | 3.0 | 0.00 | 0.03 | 0.00 | 79 | 1015.4 |
| 20260507061004 | 56 | 31 | 1.0 | 4.0 | 0.00 | 0.03 | 0.00 | 79 | 1015.3 |
| 20260507060004 | 56 | 64 | 0.0 | 3.0 | 0.00 | 0.03 | 0.00 | 78 | 1015.1 |
| 20260507055002 | 56 | 59 | 1.0 | 4.0 | 0.00 | 0.03 | 0.00 | 78 | 1015.0 |
| 20260507054002 | 56 | 63 | 1.0 | 3.0 | 0.00 | 0.03 | 0.00 | 78 | 1015.1 |
| 20260507053007 | 56 | 71 | 1.0 | 4.0 | 0.00 | 0.03 | 0.00 | 77 | 1015.1 |
| 20260507052004 | 56 | 65 | 1.0 | 5.0 | 0.00 | 0.03 | 0.00 | 77 | 1015.1 |
| 20260507051003 | 56 | 70 | 1.0 | 3.0 | 0.00 | 0.03 | 0.00 | 77 | 1015.1 |
| 20260507050439 | 57 | 64 | 1.0 | 3.0 | 0.00 | 0.03 | 0.00 | 77 | 1015.1 |
| 20260507045002 | 57 | 72 | 1.0 | 6.0 | 0.00 | 0.03 | 0.03 | 76 | 1015.0 |
| 20260507044445 | 57 | 67 | 2.0 | 7.0 | 0.00 | 0.03 | 0.03 | 76 | 1014.9 |
| 20260507043006 | 57 | 69 | 2.0 | 6.0 | 0.00 | 0.03 | 0.03 | 75 | 1015.1 |
| 20260507042001 | 58 | 58 | 3.0 | 8.0 | 0.00 | 0.03 | 0.03 | 74 | 1015.1 |
| 20260507041002 | 58 | 71 | 4.0 | 9.0 | 0.00 | 0.03 | 0.03 | 74 | 1015.3 |
| 20260507035957 | 58 | 61 | 4.0 | 12.0 | 0.00 | 0.03 | 0.03 | 73 | 1015.4 |
| 20260507035452 | 59 | 19 | 3.0 | 11.0 | 0.00 | 0.03 | 0.03 | 73 | 1015.3 |
| 20260507033959 | 59 | 78 | 2.0 | 11.0 | 0.00 | 0.03 | 0.03 | 72 | 1015.3 |
| 20260507033439 | 59 | 53 | 3.0 | 8.0 | 0.00 | 0.03 | 0.03 | 72 | 1015.3 |
| 20260507032449 | 59 | 26 | 3.0 | 7.0 | 0.00 | 0.03 | 0.03 | 72 | 1015.1 |
| 20260507030956 | 59 | 57 | 2.0 | 9.0 | 0.00 | 0.03 | 0.03 | 72 | 1015.1 |
| 20260507025955 | 60 | 67 | 2.0 | 8.0 | 0.00 | 0.03 | 0.03 | 72 | 1015.3 |
| 20260507024954 | 60 | 33 | 2.0 | 9.0 | 0.00 | 0.03 | 0.03 | 72 | 1014.9 |
| 20260507023948 | 60 | 26 | 2.0 | 8.0 | 0.00 | 0.03 | 0.03 | 71 | 1014.7 |
| 20260507022949 | 60 | 355 | 3.0 | 9.0 | 0.00 | 0.03 | 0.03 | 71 | 1014.5 |
| 20260507021947 | 61 | 339 | 2.0 | 11.0 | 0.00 | 0.03 | 0.03 | 71 | 1014.4 |
| 20260507020954 | 61 | 5 | 2.0 | 5.0 | 0.00 | 0.03 | 0.03 | 71 | 1014.1 |
| 20260507015948 | 61 | 0 | 1.0 | 4.0 | 0.00 | 0.03 | 0.03 | 72 | 1014.0 |
| 20260507014948 | 62 | 33 | 2.0 | 7.0 | 0.00 | 0.03 | 0.03 | 72 | 1013.7 |
| 20260507013946 | 62 | 12 | 2.0 | 7.0 | 0.00 | 0.03 | 0.03 | 71 | 1013.6 |
| 20260507012946 | 62 | 344 | 1.0 | 5.0 | 0.00 | 0.03 | 0.03 | 71 | 1013.3 |
| 20260507012426 | 62 | 5 | 1.0 | 5.0 | 0.00 | 0.03 | 0.03 | 70 | 1013.1 |
| 20260507011423 | 63 | 69 | 1.0 | 3.0 | 0.00 | 0.03 | 0.03 | 70 | 1012.9 |
| 20260507010433 | 63 | 33 | 1.0 | 8.0 | 0.00 | 0.03 | 0.03 | 70 | 1012.8 |
| 20260507004946 | 63 | 40 | 2.0 | 7.0 | 0.00 | 0.03 | 0.03 | 69 | 1012.6 |
| 20260507003946 | 64 | 52 | 1.0 | 4.0 | 0.00 | 0.03 | 0.03 | 68 | 1012.5 |
| 20260507002943 | 64 | 5 | 2.0 | 5.0 | 0.00 | 0.03 | 0.03 | 66 | 1012.3 |
| 20260507002421 | 65 | 17 | 1.0 | 5.0 | 0.00 | 0.03 | 0.03 | 67 | 1012.3 |
| 20260507000943 | 65 | 335 | 1.0 | 5.0 | 0.00 | 0.03 | 0.03 | 67 | 1012.4 |
| 20260506235944 | 65 | 13 | 1.0 | 4.0 | 0.00 | 0.03 | 0.03 | 66 | 1012.2 |
| 20260506234942 | 65 | 17 | 1.0 | 5.0 | 0.00 | 0.03 | 0.03 | 66 | 1012.1 |
| 20260506233941 | 66 | 23 | 2.0 | 9.0 | 0.00 | 0.03 | 0.03 | 64 | 1011.9 |
| 20260506232943 | 66 | 355 | 4.0 | 13.0 | 0.00 | 0.03 | 0.03 | 65 | 1011.8 |
| 20260506231940 | 66 | 328 | 3.0 | 11.0 | 0.00 | 0.03 | 0.03 | 65 | 1011.7 |
| 20260506230942 | 66 | 355 | 2.0 | 6.0 | 0.00 | 0.03 | 0.03 | 65 | 1011.6 |
| 20260506230444 | 66 | 344 | 1.0 | 4.0 | 0.00 | 0.03 | 0.03 | 65 | 1011.5 |
| 20260506224941 | 67 | 15 | 2.0 | 7.0 | 0.00 | 0.03 | 0.03 | 63 | 1011.7 |
| 20260506223942 | 67 | 13 | 2.0 | 11.0 | 0.00 | 0.03 | 0.03 | 63 | 1011.5 |
| 20260506222942 | 67 | 71 | 1.0 | 4.0 | 0.00 | 0.03 | 0.03 | 66 | 1011.2 |
| 20260506221941 | 66 | 38 | 4.0 | 13.0 | 0.00 | 0.03 | 0.03 | 67 | 1011.2 |
| 20260506220940 | 66 | 63 | 2.0 | 11.0 | 0.00 | 0.03 | 0.03 | 65 | 1011.3 |
| 20260506215942 | 66 | 74 | 3.0 | 11.0 | 0.00 | 0.03 | 0.03 | 66 | 1011.3 |
| 20260506214940 | 65 | 65 | 2.0 | 9.0 | 0.00 | 0.03 | 0.03 | 66 | 1011.5 |
| 20260506213939 | 65 | 65 | 1.0 | 6.0 | 0.00 | 0.03 | 0.03 | 67 | 1011.6 |
| 20260506212939 | 65 | 65 | 2.0 | 9.0 | 0.00 | 0.03 | 0.03 | 67 | 1011.6 |
| 20260506211940 | 64 | 17 | 2.0 | 5.0 | 0.00 | 0.03 | 0.03 | 69 | 1011.5 |
| 20260506210934 | 63 | 0 | 1.0 | 6.0 | 0.00 | 0.03 | 0.03 | 69 | 1011.7 |
| 20260506210412 | 63 | 5 | 1.0 | 5.0 | 0.00 | 0.03 | 0.03 | 69 | 1011.9 |
| 20260506204931 | 63 | 40 | 2.0 | 5.0 | 0.00 | 0.03 | 0.03 | 69 | 1011.9 |
| 20260506203933 | 63 | 69 | 1.0 | 5.0 | 0.00 | 0.03 | 0.03 | 68 | 1011.6 |
| 20260506202931 | 63 | 0 | 1.0 | 5.0 | 0.00 | 0.03 | 0.03 | 70 | 1011.9 |
| 20260506201932 | 62 | 42 | 1.0 | 8.0 | 0.00 | 0.03 | 0.03 | 70 | 1012.2 |
| 20260506200931 | 62 | 64 | 2.0 | 10.0 | 0.00 | 0.03 | 0.03 | 69 | 1012.2 |
| 20260506195930 | 62 | 61 | 2.0 | 6.0 | 0.00 | 0.03 | 0.03 | 69 | 1012.5 |
| 20260506194934 | 62 | 63 | 2.0 | 9.0 | 0.00 | 0.03 | 0.03 | 71 | 1012.6 |
| 20260506193926 | 61 | 71 | 2.0 | 11.0 | 0.00 | 0.03 | 0.03 | 71 | 1012.6 |
| 20260506192927 | 61 | 71 | 1.0 | 9.0 | 0.00 | 0.03 | 0.03 | 73 | 1012.9 |
| 20260506191926 | 60 | 28 | 1.0 | 6.0 | 0.00 | 0.03 | 0.03 | 73 | 1012.9 |
| 20260506190925 | 60 | 80 | 2.0 | 7.0 | 0.00 | 0.03 | 0.03 | 72 | 1013.0 |
| 20260506185926 | 60 | 306 | 2.0 | 6.0 | 0.00 | 0.03 | 0.03 | 72 | 1013.0 |
| 20260506184926 | 60 | 5 | 2.0 | 9.0 | 0.00 | 0.03 | 0.03 | 73 | 1012.9 |
| 20260506184404 | 60 | 26 | 4.0 | 14.0 | 0.00 | 0.03 | 0.03 | 74 | 1012.6 |
| 20260506182925 | 59 | 340 | 6.0 | 13.0 | 0.00 | 0.03 | 0.03 | 75 | 1012.1 |
| 20260506181926 | 58 | 298 | 3.0 | 10.0 | 0.00 | 0.03 | 0.03 | 76 | 1012.4 |
| 20260506180921 | 58 | 355 | 5.0 | 14.0 | 0.00 | 0.03 | 0.03 | 77 | 1012.3 |